Radiation Dose at Monitoring Post of Fukushima Daini Nuclear Power Station
Date,Time,MP-1(microSv/h),MP-2(microSv/h),MP-3(microSv/h),MP-4(microSv/h),MP-5(microSv/h),MP-6(microSv/h),MP-7(microSv/h),Wind Direction,Wind Velocity(m/s),Rain
2015/12/15,00:00,0.452,0.267,0.476,0.434,0.419,0.218,0.192,north-northwest,4.9,No
2015/12/15,00:10,0.455,0.268,0.480,0.433,0.417,0.218,0.190,north-northwest,4.0,No
2015/12/15,00:20,0.452,0.266,0.476,0.433,0.418,0.217,0.191,north-northwest,4.8,No
2015/12/15,00:30,0.452,0.268,0.476,0.434,0.418,0.218,0.190,north-northwest,4.5,No
2015/12/15,00:40,0.454,0.266,0.477,0.433,0.418,0.218,0.192,north-northwest,1.2,No
2015/12/15,00:50,0.451,0.268,0.477,0.432,0.420,0.219,0.190,north-northwest,1.6,No
2015/12/15,01:00,0.454,0.266,0.478,0.433,0.419,0.218,0.191,north,3.1,No
2015/12/15,01:10,0.452,0.267,0.475,0.431,0.420,0.217,0.190,north-northwest,3.3,No
2015/12/15,01:20,0.452,0.267,0.476,0.436,0.419,0.218,0.189,north-northwest,2.5,No
2015/12/15,01:30,0.453,0.266,0.476,0.433,0.418,0.218,0.190,north-northwest,3.5,No
2015/12/15,01:40,0.451,0.267,0.476,0.433,0.421,0.219,0.191,north-northwest,2.5,No
2015/12/15,01:50,0.453,0.268,0.477,0.433,0.419,0.219,0.190,north-northwest,3.6,No
2015/12/15,02:00,0.451,0.267,0.477,0.433,0.418,0.219,0.190,north-northwest,2.3,No
2015/12/15,02:10,0.452,0.267,0.478,0.433,0.419,0.218,0.189,north-northwest,3.5,No
2015/12/15,02:20,0.455,0.268,0.478,0.433,0.418,0.218,0.190,north-northwest,3.7,No
2015/12/15,02:30,0.451,0.267,0.476,0.431,0.418,0.219,0.189,north-northwest,4.2,No
2015/12/15,02:40,0.453,0.267,0.478,0.435,0.420,0.217,0.191,north,3.4,No
2015/12/15,02:50,0.453,0.269,0.475,0.434,0.417,0.218,0.190,north,3.9,No
2015/12/15,03:00,0.453,0.269,0.476,0.435,0.419,0.219,0.192,north,2.4,No
2015/12/15,03:10,0.454,0.268,0.479,0.434,0.418,0.219,0.191,north,2.8,No
2015/12/15,03:20,0.453,0.268,0.477,0.434,0.418,0.218,0.191,north,2.7,No
2015/12/15,03:30,0.451,0.267,0.477,0.432,0.418,0.218,0.190,north-northwest,3.0,No
2015/12/15,03:40,0.454,0.267,0.477,0.435,0.419,0.219,0.192,north,2.3,No
2015/12/15,03:50,0.453,0.267,0.477,0.435,0.419,0.219,0.190,north-northwest,1.4,No
2015/12/15,04:00,0.452,0.267,0.477,0.431,0.418,0.218,0.191,north-northwest,1.9,No
2015/12/15,04:10,0.454,0.267,0.478,0.436,0.419,0.219,0.190,north-northwest,2.9,No
2015/12/15,04:20,0.453,0.267,0.476,0.434,0.418,0.218,0.190,north-northwest,3.0,No
2015/12/15,04:30,0.453,0.267,0.477,0.432,0.418,0.218,0.190,north-northwest,2.5,No
2015/12/15,04:40,0.453,0.267,0.478,0.434,0.418,0.217,0.189,north-northwest,3.6,No
2015/12/15,04:50,0.452,0.267,0.475,0.435,0.416,0.218,0.191,north-northwest,2.8,No
2015/12/15,05:00,0.452,0.267,0.477,0.432,0.418,0.218,0.190,north-northwest,2.2,No
2015/12/15,05:10,0.454,0.267,0.477,0.433,0.417,0.218,0.190,northwest,2.2,No
2015/12/15,05:20,0.452,0.267,0.476,0.434,0.417,0.219,0.190,north-northwest,2.4,No
2015/12/15,05:30,0.452,0.266,0.477,0.433,0.417,0.219,0.190,north,3.3,No
2015/12/15,05:40,0.452,0.267,0.476,0.434,0.419,0.218,0.189,north,2.9,No
2015/12/15,05:50,0.451,0.266,0.476,0.434,0.418,0.218,0.190,north-northwest,4.0,No
2015/12/15,06:00,0.452,0.267,0.478,0.431,0.417,0.218,0.191,north-northwest,1.7,No
2015/12/15,06:10,0.454,0.269,0.478,0.432,0.418,0.217,0.190,north,2.4,No
2015/12/15,06:20,0.453,0.269,0.475,0.435,0.418,0.218,0.191,north-northwest,2.1,No
2015/12/15,06:30,0.452,0.266,0.478,0.431,0.418,0.218,0.190,north-northwest,2.8,No
2015/12/15,06:40,0.453,0.267,0.476,0.433,0.418,0.219,0.190,north-northwest,1.3,No
2015/12/15,06:50,0.452,0.267,0.475,0.433,0.417,0.218,0.191,north,2.6,No
2015/12/15,07:00,0.451,0.266,0.477,0.433,0.417,0.218,0.190,north-northwest,1.5,No
2015/12/15,07:10,0.452,0.267,0.476,0.432,0.418,0.219,0.190,north-northwest,1.3,No
2015/12/15,07:20,0.452,0.268,0.476,0.434,0.418,0.219,0.190,north,1.1,No
2015/12/15,07:30,0.453,0.267,0.478,0.432,0.417,0.219,0.190,north-northwest,1.0,No
2015/12/15,07:40,0.453,0.268,0.476,0.432,0.417,0.218,0.190,north,0.8,No
2015/12/15,07:50,0.452,0.268,0.476,0.432,0.420,0.219,0.191,north-northwest,0.8,No
2015/12/15,08:00,0.454,0.268,0.478,0.430,0.416,0.218,0.189,north,1.2,No
2015/12/15,08:10,0.452,0.265,0.474,0.433,0.418,0.219,0.190,-,CALM,No
2015/12/15,08:20,0.450,0.267,0.478,0.431,0.418,0.219,0.190,north,0.6,No
2015/12/15,08:30,0.454,0.268,0.476,0.431,0.417,0.218,0.191,-,CALM,No
2015/12/15,08:40,0.452,0.267,0.474,0.433,0.420,0.218,0.189,-,CALM,No
2015/12/15,08:50,0.453,0.268,0.477,0.430,0.416,0.219,0.190,-,CALM,No
2015/12/15,09:00,0.453,0.267,0.477,0.434,0.419,0.218,0.189,-,CALM,No
2015/12/15,09:10,0.450,0.267,0.476,0.433,0.418,0.217,0.190,-,CALM,No
2015/12/15,09:20,0.453,0.269,0.475,0.430,0.418,0.219,0.190,-,CALM,No
2015/12/15,09:30,0.450,0.267,0.476,0.434,0.420,0.218,0.189,north-northeast,1.9,No
2015/12/15,09:40,0.455,0.267,0.477,0.431,0.418,0.219,0.190,north-northeast,2.1,No
2015/12/15,09:50,0.452,0.268,0.474,0.433,0.422,0.219,0.190,north,2.8,No
2015/12/15,10:00,0.452,0.269,0.477,0.432,0.419,0.219,0.190,north,2.1,No
2015/12/15,10:10,0.453,0.266,0.476,0.433,0.421,0.218,0.191,north,2.2,No
2015/12/15,10:20,0.453,0.269,0.478,0.434,0.419,0.219,0.190,north,1.9,No
2015/12/15,10:30,0.453,0.268,0.474,0.434,0.420,0.218,0.190,north,2.1,No
2015/12/15,10:40,0.452,0.267,0.477,0.434,0.418,0.219,0.190,north,2.1,No
2015/12/15,10:50,0.455,0.264,0.475,0.432,0.419,0.218,0.190,north,2.1,No
2015/12/15,11:00,0.451,0.266,0.477,0.435,0.420,0.220,0.192,north,1.6,No
2015/12/15,11:10,0.455,0.268,0.476,0.431,0.421,0.219,0.191,north-northeast,1.1,No
2015/12/15,11:20,0.452,0.269,0.477,0.435,0.421,0.219,0.192,north-northeast,1.6,No
2015/12/15,11:30,0.455,0.270,0.470,0.432,0.420,0.221,0.192,north,1.8,No
2015/12/15,11:40,0.453,0.268,0.475,0.436,0.423,0.219,0.191,north,1.3,No
2015/12/15,11:50,0.453,0.270,0.478,0.432,0.418,0.219,0.191,north,1.1,No
2015/12/15,12:00,0.454,0.268,0.476,0.434,0.422,0.218,0.190,northwest,0.9,No
2015/12/15,12:10,0.453,0.269,0.477,0.433,0.418,0.220,0.191,west-northwest,1.2,No
2015/12/15,12:20,0.452,0.267,0.476,0.433,0.422,0.219,0.191,west-northwest,1.3,No
2015/12/15,12:30,0.452,0.270,0.476,0.431,0.418,0.219,0.191,west-northwest,0.9,No
2015/12/15,12:40,0.453,0.266,0.475,0.433,0.422,0.219,0.191,west-northwest,0.7,No
2015/12/15,12:50,0.450,0.268,0.477,0.432,0.417,0.218,0.191,northwest,0.7,No
2015/12/15,13:00,0.454,0.267,0.476,0.432,0.422,0.219,0.191,northwest,0.7,No
2015/12/15,13:10,0.451,0.268,0.475,0.433,0.417,0.219,0.190,-,CALM,No
2015/12/15,13:20,0.454,0.267,0.475,0.433,0.420,0.218,0.190,-,CALM,No
2015/12/15,13:30,0.450,0.268,0.477,0.432,0.416,0.219,0.191,east-northeast,0.8,No
2015/12/15,13:40,0.453,0.268,0.474,0.434,0.421,0.218,0.191,northeast,0.9,No
2015/12/15,13:50,0.450,0.266,0.479,0.433,0.417,0.219,0.191,north-northwest,0.9,No
2015/12/15,14:00,0.453,0.268,0.473,0.434,0.422,0.218,0.189,-,CALM,No
2015/12/15,14:10,0.449,0.266,0.478,0.435,0.417,0.219,0.189,-,CALM,No
2015/12/15,14:20,0.454,0.269,0.474,0.432,0.421,0.218,0.190,-,CALM,No
2015/12/15,14:30,0.449,0.266,0.480,0.433,0.417,0.220,0.189,-,CALM,No
2015/12/15,14:40,0.453,0.268,0.475,0.431,0.420,0.219,0.190,-,CALM,No
2015/12/15,14:50,0.450,0.267,0.478,0.434,0.417,0.219,0.190,-,CALM,No
2015/12/15,15:00,0.455,0.268,0.475,0.432,0.420,0.217,0.190,-,CALM,No
2015/12/15,15:10,0.450,0.266,0.478,0.434,0.418,0.216,0.190,-,CALM,No
2015/12/15,15:20,0.453,0.268,0.474,0.431,0.421,0.217,0.190,-,CALM,No
2015/12/15,15:30,0.451,0.267,0.478,0.436,0.419,0.217,0.190,south-southeast,0.6,No
2015/12/15,15:40,0.453,0.267,0.473,0.432,0.420,0.217,0.190,south,1.0,No
2015/12/15,15:50,0.452,0.268,0.477,0.429,0.420,0.219,0.190,south,0.8,No
2015/12/15,16:00,0.452,0.267,0.475,0.427,0.419,0.218,0.189,-,CALM,No
2015/12/15,16:10,0.454,0.269,0.479,0.433,0.422,0.219,0.189,-,CALM,No
2015/12/15,16:20,0.450,0.268,0.475,0.431,0.417,0.218,0.191,-,CALM,No
2015/12/15,16:30,0.453,0.268,0.476,0.433,0.421,0.218,0.190,-,CALM,No
2015/12/15,16:40,0.449,0.267,0.477,0.433,0.418,0.218,0.190,-,CALM,No
2015/12/15,16:50,0.455,0.267,0.475,0.432,0.422,0.219,0.190,-,CALM,No
2015/12/15,17:00,0.451,0.269,0.478,0.435,0.418,0.219,0.190,-,CALM,No
2015/12/15,17:10,0.453,0.266,0.474,0.433,0.421,0.218,0.190,south-southwest,0.6,No
2015/12/15,17:20,0.451,0.268,0.478,0.436,0.419,0.220,0.190,south,1.9,No
2015/12/15,17:30,0.451,0.268,0.474,0.433,0.418,0.218,0.191,south,1.4,No
2015/12/15,17:40,0.452,0.267,0.476,0.434,0.420,0.218,0.190,-,CALM,No
2015/12/15,17:50,0.450,0.269,0.475,0.432,0.419,0.219,0.190,-,CALM,No
2015/12/15,18:00,0.453,0.267,0.477,0.433,0.420,0.218,0.190,-,CALM,No
2015/12/15,18:10,0.450,0.268,0.476,0.436,0.417,0.220,0.192,-,CALM,No
2015/12/15,18:20,0.453,0.266,0.475,0.432,0.420,0.219,0.191,south-southeast,1.1,No
2015/12/15,18:30,0.451,0.267,0.478,0.434,0.418,0.218,0.190,south,1.8,No
2015/12/15,18:40,0.451,0.268,0.474,0.432,0.419,0.219,0.190,south,1.1,No
2015/12/15,18:50,0.452,0.268,0.477,0.433,0.418,0.219,0.191,south,2.5,No
2015/12/15,19:00,0.452,0.269,0.475,0.434,0.417,0.219,0.191,south,3.4,No
2015/12/15,19:10,0.455,0.268,0.477,0.434,0.420,0.219,0.190,south,2.2,No
2015/12/15,19:20,0.451,0.268,0.478,0.436,0.418,0.219,0.190,south,2.6,No
2015/12/15,19:30,0.452,0.268,0.477,0.432,0.417,0.219,0.191,south,3.2,No
2015/12/15,19:40,0.453,0.268,0.478,0.433,0.420,0.218,0.190,south,3.1,No
2015/12/15,19:50,0.453,0.268,0.474,0.434,0.418,0.219,0.191,south,3.0,No
2015/12/15,20:00,0.455,0.268,0.476,0.432,0.420,0.219,0.191,south,2.6,No
2015/12/15,20:10,0.451,0.267,0.477,0.436,0.419,0.220,0.190,south,2.6,No
2015/12/15,20:20,0.455,0.269,0.474,0.433,0.419,0.219,0.190,south-southwest,4.1,No
2015/12/15,20:30,0.451,0.269,0.478,0.436,0.420,0.220,0.192,south,4.9,No
2015/12/15,20:40,0.452,0.268,0.474,0.434,0.418,0.218,0.191,south-southwest,5.7,No
2015/12/15,20:50,0.455,0.269,0.477,0.432,0.420,0.219,0.191,south,6.1,No
2015/12/15,21:00,0.453,0.267,0.475,0.434,0.419,0.219,0.191,south,5.9,No
2015/12/15,21:10,0.452,0.268,0.475,0.434,0.419,0.219,0.191,south,5.8,No
2015/12/15,21:20,0.452,0.267,0.478,0.433,0.418,0.220,0.191,south,7.5,No
2015/12/15,21:30,0.452,0.267,0.476,0.434,0.417,0.219,0.191,south,7.2,No
2015/12/15,21:40,0.454,0.267,0.479,0.434,0.421,0.220,0.190,south,4.1,No
2015/12/15,21:50,0.448,0.268,0.475,0.436,0.421,0.220,0.191,south,3.6,Yes
2015/12/15,22:00,0.457,0.268,0.478,0.434,0.420,0.219,0.192,south,4.9,Yes
2015/12/15,22:10,0.452,0.271,0.476,0.435,0.420,0.221,0.192,south-southwest,4.8,No
2015/12/15,22:20,0.454,0.268,0.476,0.434,0.418,0.220,0.192,south,5.5,No
2015/12/15,22:30,0.452,0.268,0.481,0.434,0.422,0.220,0.191,south-southwest,5.7,No
2015/12/15,22:40,0.452,0.268,0.476,0.436,0.418,0.220,0.192,south-southwest,5.3,No
2015/12/15,22:50,0.454,0.269,0.478,0.433,0.418,0.219,0.192,south-southwest,4.1,No
2015/12/15,23:00,0.454,0.270,0.476,0.435,0.423,0.220,0.192,south-southwest,3.2,No
2015/12/15,23:10,0.454,0.268,0.476,0.435,0.417,0.219,0.191,south-southwest,3.4,No
2015/12/15,23:20,0.452,0.268,0.477,0.434,0.423,0.219,0.191,south-southwest,3.4,No
2015/12/15,23:30,0.452,0.268,0.475,0.435,0.419,0.220,0.191,southwest,2.8,No
2015/12/15,23:40,0.454,0.267,0.479,0.434,0.419,0.219,0.191,southwest,5.0,No
2015/12/15,23:50,0.452,0.269,0.477,0.436,0.421,0.220,0.191,south-southwest,5.0,No
